sat.trackr.live / text

‹ back to catalog

PICO-02A021

NORAD 60538 · 2024-149BY

PAYLOAD ACTIVE UNKNOWN

§ Identity

Operator
Country
IT
Launch date
2024-08-16
Launch site
AFWTR
Launch vehicle
Mass (kg)
RCS (m²)

External: N2YO · Heavens-Above · Gunter

§ Orbital elements

Epoch: 2026-05-24T16:00:58.296960Z

Period
95.81 min
Inclination
97.6753°
Eccentricity
0.0007271
Mean motion
15.02990587 rev/d
Perigee alt
552.6 km
Apogee alt
562.7 km
Semi-major
6,935.8 km
B*
2.8627e-4
RAAN
223.7093°
Arg perigee
96.8268°
Mean anomaly
263.3785°
Rev number
9,620

§ Raw data

PICO-02A0211 60538U 24149BY  26144.66734140  .00003792  00000+0  28627-3 0  99982 60538  97.6753 223.7093 0007271  96.8268 263.3785 15.02990587 96200

JSON: /api/v1/satellites/60538 · /tle

For live sub-satellite position, see the globe view (requires WebGL).

§ Visibility from observer

Set your observer location to see the next 7 days of passes ≥ 10°. The values pass through the URL so the page stays shareable.

No JS? Fill the form by hand. The geolocation button needs JavaScript.